EHI
0 0 0 0 0 0 0 0 0 0 0 0 0 0 0 0 0 0 0 0 0 0 0 0 0 0 0 0 0 0 0 0 0 0 0 0 0 0 0 0 0 0 0 0
0 0 0 0 0 0 0 0 0 0 0 0 0 0 0 0 0 0 0 0 0 0 0 0 0 0 0 0 0 0 0 0 0 0 0 0 0 0 0 0 0 0 0 0
0 0 0 0 0 0 0 0 0 0 0 0 0 0 0 0 0 0 0 0 0 0 0 0 0 0 0 0 0 0 0 0 0 0 0 0 0 0 0 0 0 0 0 0
0 0 0 0 0 0 0 0 0 0 0 0 0 0 0 0 0 0 0 0 0 0 0 0 0 0 0 0 0 0 0 0 0 0 0 0 0 0 0 0 0 0 0 0
0 0 0 0 0 0 0 0 0 0 0 0 0 0 0 0 0 0 0 0 0 0 0 0 0 0 0 0 0 0 0 0 0 0 0 0 0 0 0 0 0 0 0 0
0 0 0 0 0 0 0 0 0 0 0 0 0 0 0 0 0 0 0 0 0 0 0 0 0 0 0 0 0 0 0 0 0 0 0 0 0 0 0 0 0 0 0 0
0 0 0 0 0 0 0 0 0 0 0 0 0 0 0 0 0 0 0 0 0 0 0 0 0 0 0 0 0 0 0 0 0 0 0 0 0 0 0 0 0 0 0 0
0 0 0 0 0 0 0 0 0 0 0 0 0 0 0 0 0 0 0 0 0 0 0 0 0 0 0 0 0 0 0 0 0 0 0 0 0 0 0 0 0 0 0 0
0 0 0 0 0 0 0 0 0 0 0 0 0 0 0 0 0 0 0 0 0 0 0 0 0 0 0 0 0 0 0 0 0 0 0 0 0 0 0 0 0 0 0 0
0 0 0 0 0 0 0 0 0 0 0 0 0 0 0 0 0 0 0 0 0 0 0 0 0 0 0 0 0 0 0 0 0 0 0 0 0 0 0 0 0 0 0 0
0 0 0 0 0 0 0 0 0 0 0 0 0 0 0 0 0 0 0 0 0 0 0 0 0 0 0 0 0 0 0 0 0 0 0 0 0 0 0 0 0 0 0 0
0 0 0 0 0 0 0 0 0 0 0 0 0 0 0 0 0 0 0 0 0 0 0 0 0 0 0 0 0 0 0 0 0 0 0 0 0 0 0 0 0 0 0 0
0 0 0 0 0 0 0 0 0 0 0 0 0 0 0 0 0 0 0 0 0 0 0 0 0 0 0 0 0 0 0 0 0 0 0 0 0 0 0 0 0 0 0 0
0 0 0 0 0 0 0 0 0 0 0 0 0 0 0 0 0 0 0 0 0 0 0 0 0 0 0 0 0 0 0 0 0 0 0 0 0 0 0 0 0 0 0 0
0 0 0 0 0 0 0 0 0 0 0 0 0 0 0 0 0 0 0 0 0 0 0 0 0 0 0 0 0 0 0 0 0 0 0 0 0 0 0 0 0 0 0 0
0 0 0 0 0 0 0 0 0 0 0 0 0 0 0 0 0 0 0 0 0 0 0 0 0 0 0 0 0 0 0 0 0 0 0 0 0 0 0 0 0 0 0 0
0 0 0 0 0 0 0 0 0 0 0 0 0 0 0 0 0 0 0 0 0 0 0 0 0 0 0 0 0 0 0 0 0 0 0 0 0 0 0 0 0 0 0 0
0 0 0 0 0 0 0 0 0 0 0 0 0 0 0 0 0 0 0 0 0 0 0 0 0 0 0 0 0 0 0 0 0 0 0 0 0 0 0 0 0 0 0 0
0 0 0 0 0 0 0 0 0 0 0 0 0 0 0 0 0 0 0 0 0 0 0 0 0 0 0 0 0 0 0 0 0 0 0 0 0 0 0 0 0 0 0 0
0 0 0 0 0 0 0 0 0 0 0 0 0 0 0 0 0 0 0 0 0 0 0 0 0 0 0 0 0 0 0 0 0 0 0 0 0 0 0 0 0 0 0 0
0 0 0 0 0 0 0 0 0 0 0 0 0 0 0 0 0 0 0 0 0 0 0 0 0 0 0 0 0 0 0 0 0 0 0 0 0 0 0 0 0 0 0 0
0 0 0 0 0 0 0 0 0 0 0 0 0 0 0 0 0 0 0 0 0 0 0 0 0 0 0 0 0 0 0 0 0 0 0 0 0 0 0 0 0 0 0 0
0 0 0 0 0 0 0 0 0 0 0 0 0 0 0 0 0 0 0 0 0 0 0 0 0 0 0 0 0 0 0 0 0 0 0 0 0 0 0 0 0 0 0 0
0 0 0 0 0 0 0 0 0 0 0 0 0 0 0 0 0 0 0 0 0 0 0 0 0 0 0 0 0 0 0 0 0 0 0 0 0 0 0 0 0 0 0 0
0 0 0 0 0 0 0 0 0 0 0 0 0 0 0 0 0 0 0 0 0 0 0 0 0 0 0 0 0 0 0 0 0 0 0 0 0 0 0 0 0 0 0 0
0 0 0 0 0 0 0 0 0 0 0 0 0 0 0 0 0 0 0 0 0 0 0 0 0 0 0 0 0 0 0 0 0 0 0 0 0 0 0 0 0 0 0 0
0 0 0 0 0 0 0 0 0 0 0 0 0 0 0 0 0 0 0 0 0 0 0 0 0 0 0 0 0 0 0 0 0 0 0 0 0 0 0 0 0 0 0 0
Wind_Speed
11 10 8 6 6 7 7 9 10 9 5 6 5 6 8 10 11 12 12 11 10 10 10 9 9 9 9 9 9 9 9 10 10 10 10 10 11 11 11 11 11 11 11 10
10 5 3 1 5 5 4 6 6 5 2 4 5 7 9 10 11 12 12 12 12 12 12 12 11 12 11 11 11 10 11 12 11 10 11 11 11 11 11 11 11 11 11 11
8 1 8 3 7 7 5 4 7 6 5 8 11 11 11 13 14 14 14 14 15 16 15 15 15 14 15 14 13 13 13 14 13 12 12 11 11 11 11 10 10 11 11 11
9 8 8 8 6 7 5 3 2 4 7 10 13 14 15 16 14 14 15 17 18 18 18 17 17 17 16 16 16 16 16 16 15 14 14 13 12 12 11 9 9 9 10 11
7 10 2 7 5 8 8 7 1 6 13 15 16 18 17 11 12 17 19 20 19 19 19 18 18 18 17 17 17 17 17 16 15 15 15 14 14 13 11 10 9 9 9 10
7 10 5 6 7 6 7 6 2 13 17 18 20 18 15 17 20 21 20 19 19 20 20 19 18 17 18 18 18 17 17 16 15 15 16 15 15 14 12 10 10 9 9 8
8 7 4 6 7 9 8 9 14 17 18 19 20 19 21 22 21 21 21 21 21 21 19 18 19 18 19 19 19 18 17 17 16 16 15 16 15 13 12 11 10 9 9 8
6 6 4 5 7 7 10 14 16 18 20 21 22 22 23 23 23 23 22 23 22 20 19 19 19 19 20 20 19 18 18 18 17 16 15 14 14 13 12 12 11 9 8 7
6 5 4 4 7 10 12 15 18 19 21 22 23 24 24 24 23 23 23 23 21 22 22 20 19 19 21 20 19 19 19 18 17 17 15 15 15 14 13 12 10 8 6 5
4 2 5 9 10 12 14 17 19 20 22 23 24 25 26 24 23 23 23 22 21 22 22 21 20 20 20 20 19 19 19 18 17 16 16 15 12 12 12 11 9 8 6 5
6 5 10 8 13 17 18 19 21 21 22 23 25 26 26 23 23 22 22 22 21 21 21 22 21 20 20 19 18 19 19 17 17 16 15 13 13 11 12 11 8 8 7 5
6 9 12 16 17 19 20 20 22 23 24 23 24 25 26 23 22 22 22 22 22 22 22 22 21 20 19 18 17 17 16 15 13 12 11 11 12 11 12 13 9 10 10 8
8 12 15 18 19 20 19 22 23 24 24 25 23 23 25 24 22 23 23 24 23 22 22 21 21 20 20 19 16 15 15 14 11 11 11 11 11 11 10 10 13 13 14 13
11 13 17 18 20 20 21 23 23 24 24 23 23 23 23 24 24 24 24 24 23 23 22 22 21 20 19 17 15 15 15 14 13 11 11 11 11 11 10 9 8 8 10 13
12 14 17 19 20 21 22 23 24 24 23 23 23 23 24 24 24 24 23 23 22 22 22 21 20 20 18 17 16 15 13 10 10 10 10 10 11 10 10 10 9 7 5 7
15 16 17 19 21 22 23 24 24 24 24 24 24 23 24 24 23 23 23 22 21 21 21 20 20 19 17 15 14 12 11 14 13 9 9 10 10 10 9 9 8 7 7 6
15 17 19 20 22 23 23 23 23 24 24 24 25 24 24 24 23 22 22 21 20 20 20 19 18 17 15 14 12 9 9 9 13 11 9 9 9 9 8 7 7 6 7 8
14 16 18 20 21 22 23 23 23 23 23 24 24 23 23 23 23 22 22 22 21 20 18 16 15 15 13 12 9 7 7 7 7 8 8 7 7 7 7 7 7 7 6 8
15 17 19 20 20 20 21 22 22 22 22 22 22 22 22 22 21 21 21 21 20 18 16 15 16 14 12 10 9 6 6 7 6 6 6 6 7 7 7 7 6 7 7 9
15 17 18 20 20 20 20 20 21 21 21 21 22 21 21 21 21 21 20 18 15 12 14 16 15 11 9 7 7 4 5 5 5 5 5 5 6 6 6 6 6 7 8 9
16 17 18 19 19 19 19 20 19 20 21 21 21 21 21 21 21 19 17 15 15 15 16 15 10 7 6 5 5 3 3 3 4 4 4 4 5 5 5 6 6 7 9 10
15 15 17 18 18 18 18 18 18 20 21 20 21 21 20 20 20 18 16 12 14 16 14 10 8 7 8 7 3 2 2 2 3 3 3 3 4 4 5 6 7 8 9 11
13 14 15 16 17 17 18 17 19 19 20 21 21 20 19 18 15 15 15 13 14 17 14 9 10 10 9 5 2 1 1 1 1 2 2 3 3 4 5 7 7 8 10 12
13 14 14 15 15 16 17 18 18 16 19 19 18 19 17 15 14 12 13 16 18 18 12 9 10 10 8 3 2 1 1 1 1 1 2 3 3 4 6 7 8 9 11 14
12 13 13 14 14 13 15 16 17 17 17 15 18 19 15 12 13 14 15 16 18 16 12 10 10 9 6 3 2 1 1 1 0 1 2 3 4 5 6 7 8 9 11 11
11 10 10 11 11 11 12 12 12 13 13 14 15 15 14 13 15 14 13 16 19 16 12 9 9 8 6 5 4 3 1 1 2 3 3 4 6 6 7 8 11 10 10 10
9 9 8 9 10 11 11 12 12 13 13 14 15 15 15 15 15 16 16 14 14 13 11 9 8 7 6 6 5 4 3 2 2 3 4 4 5 6 8 10 9 9 10 10
Wind_Direction
286 295 299 304 318 314 301 307 306 327 21 59 20 347 332 325 320 315 315 317 319 316 314 310 308 304 301 300 300 301 300 299 299 303 307 311 314 312 304 291 280 272 265 263
278 280 278 83 22 357 0 348 335 328 65 37 335 308 300 301 300 298 297 298 296 295 295 295 293 291 291 288 285 283 282 282 283 287 294 300 306 308 306 298 288 279 268 263
288 291 248 165 28 5 8 6 339 338 0 329 312 308 303 299 293 292 297 298 300 304 304 303 301 300 297 296 291 284 280 279 279 280 282 287 294 300 303 302 295 286 275 264
295 290 282 75 48 14 349 326 343 328 318 313 304 301 295 286 287 297 305 307 307 307 305 303 302 300 297 296 294 290 286 284 284 283 282 284 285 290 297 300 297 289 281 272
303 300 117 105 36 0 326 302 237 316 320 316 313 304 296 311 323 312 307 304 303 303 302 301 299 298 297 295 293 290 288 287 287 286 285 284 283 284 288 293 295 290 281 276
314 304 324 73 22 338 291 273 50 325 320 319 316 307 315 326 314 306 304 302 301 300 298 296 297 297 294 291 290 290 290 290 289 287 284 282 281 281 280 282 284 285 278 273
321 309 76 42 346 318 298 334 335 320 316 314 311 306 307 308 306 305 302 299 298 297 295 295 295 293 290 289 287 288 288 287 285 282 280 277 275 273 271 271 279 283 278 270
323 312 62 25 342 340 318 317 314 314 313 311 308 304 305 306 305 303 301 300 299 297 294 292 291 289 287 286 287 287 285 283 280 278 276 275 273 271 267 266 269 271 269 267
341 2 32 329 310 310 310 309 313 314 313 309 307 307 307 306 305 303 302 300 299 296 294 291 289 288 286 287 286 284 282 279 278 276 272 270 269 267 262 254 256 264 260 261
279 262 311 311 306 315 319 315 313 311 310 309 308 307 307 306 304 303 301 301 300 298 295 293 292 290 287 286 284 281 278 276 273 270 268 266 263 261 259 256 254 256 253 256
279 314 313 312 326 325 319 313 310 310 310 309 308 306 306 305 305 304 303 302 300 298 296 294 293 290 288 287 285 281 278 274 271 267 264 266 262 257 258 258 258 261 260 246
332 338 314 315 322 319 315 313 313 312 310 309 307 307 307 306 306 305 303 302 300 298 296 295 294 291 289 286 281 277 275 272 269 265 262 260 260 257 238 238 228 218 231 238
311 315 311 312 313 317 315 313 312 311 310 310 310 309 309 307 306 305 304 303 302 301 299 297 294 291 288 285 281 276 272 270 267 265 261 257 254 254 253 234 220 219 218 217
307 309 309 314 316 315 314 314 313 311 311 312 312 311 310 308 308 307 306 304 303 301 298 295 292 289 288 285 280 274 270 266 261 256 254 254 253 250 248 248 238 226 211 208
315 316 311 312 313 316 317 316 316 315 317 316 316 314 314 312 309 306 305 304 302 299 296 294 291 288 286 282 278 273 268 260 255 252 248 247 248 245 242 243 243 237 213 192
314 312 314 317 318 319 319 320 319 318 318 318 317 317 315 311 308 306 305 305 303 300 298 294 290 288 286 281 277 272 264 257 253 249 244 244 241 238 235 235 234 227 212 184
316 319 323 322 321 321 321 321 319 318 319 319 319 317 314 312 310 308 308 307 304 299 296 293 292 291 289 283 275 268 260 252 244 242 238 236 236 234 233 232 228 225 206 177
315 316 318 320 321 321 320 320 321 320 320 319 318 316 315 314 312 311 310 309 306 303 300 298 298 298 293 287 277 264 255 247 236 233 232 228 231 231 230 228 226 219 191 172
319 320 321 321 322 320 319 320 321 320 320 319 319 317 315 313 312 312 312 311 310 309 312 314 310 303 298 292 284 263 249 243 234 228 228 219 225 228 230 226 218 196 179 166
321 322 322 322 323 323 321 321 321 320 321 322 320 318 317 317 317 316 316 313 310 313 317 317 314 312 309 306 297 269 247 236 229 223 220 219 221 223 220 208 194 180 168 167
323 324 325 324 324 323 322 323 322 322 325 325 323 321 320 319 320 320 318 318 320 327 324 317 315 323 326 325 299 271 245 226 222 221 217 216 215 212 204 184 177 169 166 169
324 325 324 324 323 323 325 323 325 328 328 326 325 323 323 323 324 323 319 320 321 327 324 322 333 345 337 317 306 292 250 232 221 218 210 207 206 202 184 168 163 162 166 166
323 323 322 323 324 322 322 328 333 332 328 327 326 327 327 325 324 325 325 325 324 325 324 330 338 336 321 306 324 325 273 252 226 223 208 202 205 187 163 156 159 163 160 161
322 323 322 323 323 322 329 334 333 330 328 327 328 331 330 328 327 328 323 321 325 324 326 332 329 326 312 306 326 323 294 248 228 210 205 201 182 166 159 158 158 155 156 161
321 321 323 327 327 331 333 332 331 331 332 332 333 336 335 332 330 329 328 330 334 333 337 340 337 328 325 343 344 334 331 24 34 209 203 182 157 152 150 148 146 148 154 159
320 320 326 323 328 332 334 333 332 332 333 335 336 336 337 337 336 335 334 335 339 340 344 347 351 348 351 352 353 4 21 122 167 177 152 137 135 135 137 142 144 146 149 152
318 325 327 332 342 343 336 334 332 334 338 340 335 337 340 341 341 341 342 343 344 346 348 351 355 356 359 5 7 14 22 48 77 96 110 118 122 127 134 137 135 137 141 144